Portada
METAR-TAF:

METAR-TAF

Aeropuertos :

Ube, Japón

latitud: 33-57N, longitud: 131-15E, altitud: 5 m

Observación

El informe se hizo hace 1 hora y 3 minutos, a las 23:00 UTC
Viento 18 kt del este
Temperatura 19°C
Humedad 88%
Presión 1014 hPa
Visibilidad 10 km o más
Escasas nubes a una altura de 800 ft
Nubes dispersas a una altura de 1000 ft
Cielo nuboso a una altura de 3000 ft

METAR: RJDC 302300Z 10018KT 9999 FEW008 SCT010 BKN030 19/17 Q1014

Hora: 09:03 (00:03 UTC)


TAF: falta

Observaciones y pronósticos meteorológicos de más de 4000 aeropuertos (mensajes METAR y TAF).

Los puntos amarillos y rojos representan las estaciones disponibles.

Ponga el ratón en el punto deseado para ver el nombre de la estación.

Haga clic para ver las observaciones y los pronósticos meteorológicos.

Para cambiar el mapa : haga clic en los botones verdes con una cruz de color negro para hacer un zoom, en el botón verde con un guión para alejar o en las flechas verdes para mapas adyacentes.


METAR-TAF: